Location: Baumgartsau
(48.4586°N, 14.0864°E)
Time: 11:27:12
(UTC+00:00)

BREEZE M DEB (TANK) - Pass Details

Date: 07 August 2020
Orbit: 304 x 11869 km, 49.5° (Epoch: 20 September)

Event Time Altitude Azimuth Distance (km) Brightness Sun altitude
Exits shadow 02:08:58 13° 213° (SSW) 10,309 8.1 -13.9°
Maximum altitude 02:35:50 52° 150° (SSE) 2,859 5.8 -10.7°
Drops below altitude 10° 02:43:29 10° 76° (ENE) 3,143 7.3 -9.7°
Sets 02:45:14 0° 70° (ENE) 3,669 8.1 -9.5°
